FW8293 Weather Reports


time (UTC)temp
C
wind
direction
speed
KPH
gust
KPH
rain 1hr
cm
rain 24hr
cm
rain mn
cm
humidity
%
barometer
mb
20260508220037 19 235 6.4 17.7 0.00 0.00 0.00 58 1013.9
20260508214530 19 302 8.0 16.1 0.00 0.00 0.00 57 1014.0
20260508213110 20 138 6.4 16.1 0.00 0.00 0.00 56 1013.7
20260508211538 19 5 8.0 25.7 0.00 0.00 0.00 56 1013.6
20260508210031 19 209 6.4 20.9 0.00 0.00 0.00 57 1013.8
20260508204534 19 84 6.4 16.1 0.00 0.00 0.00 57 1013.9
20260508203032 19 156 12.9 20.9 0.00 0.00 0.00 56 1014.0
20260508201535 20 148 8.0 19.3 0.00 0.00 0.00 55 1014.0
20260508200030 20 81 6.4 17.7 0.00 0.00 0.00 55 1014.5
20260508194530 19 146 6.4 17.7 0.00 0.00 0.00 56 1014.5
20260508193036 19 186 4.8 19.3 0.00 0.00 0.00 56 1014.9
20260508191537 20 178 6.4 19.3 0.00 0.00 0.00 54 1015.0
20260508190034 20 203 9.7 20.9 0.00 0.00 0.00 53 1015.3
20260508184532 20 130 6.4 17.7 0.00 0.00 0.00 51 1015.5
20260508183033 20 270 3.2 19.3 0.00 0.00 0.00 55 1015.6
20260508181533 18 70 11.3 25.7 0.00 0.00 0.00 56 1015.8
20260508180030 18 114 12.9 32.2 0.00 0.00 0.00 56 1016.0
20260508174536 19 239 8.0 19.3 0.00 0.00 0.00 52 1016.3
20260508173032 19 248 8.0 20.9 0.00 0.00 0.00 52 1016.3
20260508171535 18 231 8.0 14.5 0.00 0.00 0.00 54 1016.7
20260508170030 18 226 8.0 22.5 0.00 0.00 0.00 55 1017.0
20260508164532 18 167 8.0 19.3 0.00 0.00 0.00 54 1017.1
20260508163035 18 160 6.4 19.3 0.00 0.00 0.00 55 1017.4
20260508161534 18 77 4.8 11.3 0.00 0.00 0.00 56 1017.7
20260508160028 17 149 6.4 12.9 0.00 0.00 0.00 58 1018.0
20260508154530 16 307 3.2 11.3 0.00 0.00 0.00 60 1018.1
20260508153036 17 307 1.6 14.5 0.00 0.00 0.00 59 1018.1
20260508151532 16 48 4.8 17.7 0.00 0.00 0.00 60 1018.1
20260508150030 16 187 4.8 11.3 0.00 0.00 0.00 61 1018.1
20260508144529 16 225 4.8 11.3 0.00 0.00 0.00 61 1018.2
20260508143029 16 274 1.6 9.7 0.00 0.00 0.00 62 1018.3
20260508141530 16 71 3.2 6.4 0.00 0.00 0.00 64 1018.4
20260508140030 16 0 0.0 0.0 0.00 0.00 0.00 65 1018.5
20260508134532 15 0 0.0 0.0 0.00 0.00 0.00 67 1018.5
20260508133031 14 0 0.0 3.2 0.00 0.00 0.00 71 1018.6
20260508131532 13 89 0.0 3.2 0.00 0.00 0.00 74 1018.6
20260508130031 12 0 0.0 3.2 0.00 0.00 0.00 78 1018.5
20260508124528 12 0 0.0 1.6 0.00 0.00 0.00 81 1018.4
20260508123032 11 0 0.0 1.6 0.00 0.00 0.00 85 1018.3
20260508121531 10 113 0.0 1.6 0.00 0.00 0.00 88 1018.1
20260508120038 8 0 0.0 1.6 0.00 0.00 0.00 91 1018.0
20260508114532 7 0 0.0 3.2 0.00 0.20 0.00 94 1017.7
20260508113035 6 70 1.6 1.6 0.00 0.20 0.00 94 1017.5
20260508111540 5 0 0.0 1.6 0.00 0.20 0.00 96 1017.3
20260508110029 5 0 0.0 1.6 0.00 0.20 0.00 96 1017.1
20260508104531 5 311 0.0 0.0 0.00 0.25 0.00 95 1016.9
20260508103036 5 0 0.0 0.0 0.00 0.25 0.00 95 1016.6
20260508101532 5 0 0.0 0.0 0.00 0.25 0.00 95 1016.5
20260508100031 5 297 1.6 1.6 0.00 0.25 0.00 95 1016.4
20260508094528 5 0 0.0 1.6 0.00 0.25 0.00 95 1016.3
20260508093028 5 0 0.0 1.6 0.00 0.25 0.00 95 1016.3
20260508091537 5 105 0.0 0.0 0.00 0.25 0.00 95 1016.1
20260508090033 5 0 0.0 1.6 0.00 0.25 0.00 95 1016.2
20260508084527 6 0 0.0 0.0 0.00 0.33 0.00 95 1016.0
20260508083029 6 0 0.0 1.6 0.00 0.33 0.00 95 1015.7
20260508081542 6 0 0.0 0.0 0.00 0.33 0.00 95 1015.5
20260508080028 6 0 0.0 0.0 0.00 0.33 0.00 95 1015.5
20260508074531 6 0 0.0 0.0 0.00 0.33 0.00 94 1015.6
20260508073030 6 0 0.0 0.0 0.00 0.33 0.00 95 1015.3
20260508071530 7 0 0.0 0.0 0.00 0.33 0.00 94 1015.0
20260508070030 7 0 0.0 1.6 0.00 0.33 0.00 94 1015.0
20260508064530 7 0 0.0 0.0 0.00 0.33 0.00 93 1014.8
20260508063029 8 0 0.0 1.6 0.00 0.33 0.00 92 1014.8
20260508061530 8 0 0.0 1.6 0.00 0.33 0.00 91 1014.6
20260508060031 8 109 0.0 1.6 0.00 0.33 0.00 89 1014.6
20260508054531 9 0 0.0 6.4 0.00 0.48 0.00 89 1014.5
20260508053031 10 70 0.0 4.8 0.00 0.48 0.00 87 1014.4
20260508051531 11 72 1.6 4.8 0.00 0.48 0.00 82 1014.3
20260508050031 11 191 0.0 3.2 0.00 0.48 0.00 79 1014.3
20260508044531 11 0 0.0 1.6 0.00 0.66 0.00 78 1014.3
20260508043031 11 73 0.0 6.4 0.00 0.66 0.00 80 1014.1
20260508041534 12 222 3.2 8.0 0.00 0.66 0.00 76 1014.1
20260508040030 12 283 1.6 8.0 0.00 0.66 0.00 75 1014.2
20260508034533 13 0 4.8 14.5 0.00 0.69 0.66 72 1014.4
20260508033030 13 256 6.4 14.5 0.00 0.69 0.66 71 1014.4
20260508031530 12 212 1.6 9.7 0.00 0.69 0.66 73 1014.4
20260508030030 12 0 0.0 4.8 0.00 0.69 0.66 75 1014.5
20260508024528 13 63 1.6 14.5 0.00 0.74 0.66 72 1014.2
20260508023029 12 209 6.4 11.3 0.00 0.74 0.66 75 1014.0
20260508021530 12 0 1.6 4.8 0.00 0.74 0.66 75 1013.7
20260508020036 12 231 3.2 9.7 0.00 0.74 0.66 78 1013.8
20260508014530 12 230 8.0 19.3 0.00 0.74 0.66 75 1013.5
20260508013027 13 186 8.0 17.7 0.00 0.74 0.66 72 1013.3
20260508011532 13 193 8.0 12.9 0.00 0.74 0.66 68 1012.9
20260508010033 14 220 9.7 20.9 0.00 0.74 0.66 66 1012.8
20260508004528 14 150 8.0 16.1 0.00 0.99 0.66 65 1012.6
20260508003027 15 159 11.3 17.7 0.00 0.99 0.66 65 1012.4
20260508001529 15 238 8.0 20.9 0.00 0.99 0.66 66 1012.2
20260508000029 15 211 9.7 16.1 0.00 0.99 0.66 68 1012.1
20260507234538 16 116 1.6 19.3 0.00 1.22 0.66 65 1012.1
20260507233030 16 124 9.7 16.1 0.00 1.22 0.66 64 1012.0
20260507231528 17 281 3.2 9.7 0.00 1.22 0.66 64 1011.7
20260507230032 17 231 6.4 17.7 0.00 1.22 0.66 64 1011.6
20260507224533 19 176 3.2 14.5 0.00 1.27 0.66 62 1011.1
20260507223034 20 163 1.6 19.3 0.00 1.27 0.66 60 1010.7
20260507221530 20 301 3.2 16.1 0.00 1.27 0.66 60 1010.4